Regional Weather Roundup
Issued by NWS

Home | Current Version | Previous Version | Text Only | Print | Product List | Glossary On
Versions: 1 2 3 4 5 6 7 8 9 10 11 12 13 14 15 16 17 18 19 20 21 22 23 24 25 26 27 28 29 30 31 32 33 34 35 36 37 38 39 40 41 42 43 44 45 46 47 48 49 50
000
ASCA44 KEWX 221320
RWRMX

LATIN AMERICA AND CARIBBEAN REGIONAL WEATHER ROUNDUP
NATIONAL WEATHER SERVICE AUSTIN/SAN ANTONIO TX
700 AM CST WED FEB 22 2017

NOTE: "FAIR" INDICATED FEW OR NO CLOUDS BELOW 12,000 FEET WITH NO
SIGNIFICANT WEATHER AND/OR OBSTRUCTIONS TO VISIBILITY.

BAJA CALIFORNIA

CITY           SKY/WX    TMP DP  RH WIND       PRES   REMARKS
LA PAZ         CLEAR     48  45  87 S5        29.96  WCI  46
S.J. DEL CABO  CLEAR     64  36  34 W12       29.93
TIJUANA        FOG       54  52  94 CALM      30.17  VSB 1/16

NORTHWESTERN MEXICO

CITY           SKY/WX    TMP DP  RH WIND       PRES   REMARKS
CULIACAN       FOG       57  57 100 CALM      29.91  VSB 1/4
DURANGO        CLEAR     27  14  59 N3        30.35
HERMOSILLO     CLEAR     59  55  88 CALM      29.96
CD. JUAREZ     PTCLDY    48  34  57 CALM      30.08
OBREGON        CLEAR     54  54 100 E2        29.87

NORTHEASTERN MEXICO

CITY           SKY/WX    TMP DP  RH WIND       PRES   REMARKS
CHIHUAHUA      CLEAR     36  16  44 S9        30.21  WCI  29
MATAMOROS      CLEAR     54  52  94 W5        29.94
MONCLOVA         N/A    N/A N/A N/A MISG        N/A
MONTERREY      CLEAR     57  19  23 W7        29.99S
NUEVO LAREDO   CLEAR     54  41  62 SE5       29.95
REYNOSA        CLEAR     52  43  71 NW3       29.95
SALTILLO       CLEAR     50  34  53 S12       30.25S WCI  46
TORREON        PTCLDY    50  25  37 CALM      30.19
CD. VICTORIA   CLEAR     48  30  49 NW6       30.00  WCI  46

WESTERN MEXICO

CITY           SKY/WX    TMP DP  RH WIND       PRES   REMARKS
AGUASCALIENTES CLEAR     39  12  33 NE7       30.31  WCI  34
COLIMA           N/A    N/A N/A N/A MISG        N/A
DEL BAJIO      CLEAR     39  27  60 NW6       30.31R WCI  35
GUADALAJARA    CLEAR     43  34  70 CALM      30.21
MANZANILLO     MOCLDY    66  59  77 N7        29.92
MAZATLAN       FOG       63  63 100 E5        29.95R VSB 1
P. VALLARTA    CLEAR     59  57  94 NE5       29.95R
URUAPAN        CLEAR     48  45  87 CALM      30.18
ZACATECAS      CLEAR     30   7  37 CALM      30.33

CENTRAL MEXICO

CITY           SKY/WX    TMP DP  RH WIND       PRES   REMARKS
CUERNAVACA     CLEAR     61  41  48 NW3       30.13
MEXICO CITY    CLEAR     48  37  66 NE9       30.36R WCI  44
MORELIA        CLEAR     39  28  65 CALM      30.26
POZA RICA      CLEAR     57  55  94 S5        30.04
QUERETARO      CLEAR     36  34  93 SE3       30.34R
S. LUIS POTOSI CLEAR     37  25  60 CALM      30.28
TAMPICO        CLEAR     59  54  82 W5        29.98
TOLUCA         CLEAR     36  30  80 CALM      30.39

SOUTHERN MEXICO

CITY           SKY/WX    TMP DP  RH WIND       PRES   REMARKS
ACAPULCO       CLEAR     70  66  88 CALM      29.92R
B. DE HUATULCO CLEAR     72  54  53 CALM      29.98
OAXACA         CLEAR     50  43  76 N2        30.24R
P. ESCONDIDO   PTCLDY    73  66  78 CALM      30.00
VERACRUZ       CLEAR     59  55  88 CALM      30.02R
ZIHUATANEJO    CLEAR     66  64  94 CALM      29.94

YUCATAN PENINSULA

CITY           SKY/WX    TMP DP  RH WIND       PRES   REMARKS
CAMPECHE       CLEAR     66  63  88 CALM      29.93R
CANCUN         CLEAR     66  59  77 W10       29.87R
CHETUMAL       MOCLDY    68  66  94 N6        29.92
CD. DEL CARMEN CLEAR     73  63  68 SW7       29.99
COZUMEL        MOCLDY    73  61  64 NW14      29.86R
MERIDA         CLEAR     61  55  82 SW6       29.92S
MINATITLAN     CLEAR     63  61  94 S6        30.01
TAPACHULA      PTCLDY    72  68  88 CALM      29.87R
TUX. GUTIERREZ MOCLDY    66  57  72 W6        30.05R
VILLAHERMOSA   CLEAR     63  63 100 CALM      30.04R

CENTRAL AMERICA

CITY           SKY/WX    TMP DP  RH WIND       PRES   REMARKS
BELIZE CITY    MOCLDY    73  72  94 NW8       29.92R
MANAGUA        MOSUNNY   75  70  83 S7        29.89R

CARIBBEAN

CITY           SKY/WX    TMP DP  RH WIND       PRES   REMARKS
ARUBA          MOSUNNY   82  72  69 E9        29.89S
KINGSTON       MOSUNNY   77  66  69 NW5       29.86S
NASSAU         CLOUDY    75  59  57 E3        29.92R
SAN JUAN       PTSUNNY   77  66  69 W6        29.91R
SANTO DOMINGO  MOSUNNY   75  68  78 N7        29.89S
ST. CROIX      MOSUNNY   77  66  69 CALM      29.89
ST. KITTS      MOSUNNY   79  68  69 W2        29.86S
ST. MAARTEN    MOSUNNY   79  68  69 NE3       29.86S
ST. THOMAS     PTSUNNY   77  68  73 NE13      29.88

$$





USA.gov is the U.S. government's official web portal to all federal, state and local government web resources and services.